Time,TemperatureF,DewpointF,PressureIn,WindDirection,WindDirectionDegrees,WindSpeedMPH,WindSpeedGustMPH,Humidity,HourlyPrecipIn,Conditions,Clouds,dailyrainin,SoftwareType,DateUTC
2013-09-20 00:12:00,48.0,43.0,30.08,WNW,289,0.0,0.0,82,0.00,,,0.00,,2013-09-20 06:12:00,
2013-09-20 00:22:00,48.0,42.0,30.08,WNW,289,0.0,0.0,81,0.00,,,0.00,,2013-09-20 06:22:00,
2013-09-20 00:52:00,46.0,41.0,30.08,WNW,289,0.0,2.0,83,0.00,,,0.00,,2013-09-20 06:52:00,
2013-09-20 01:11:00,46.0,41.0,30.08,WNW,289,0.0,0.0,84,0.00,,,0.00,,2013-09-20 07:11:00,
2013-09-20 01:22:00,46.0,42.0,30.08,WNW,289,0.0,2.0,85,0.00,,,0.00,,2013-09-20 07:22:00,
2013-09-20 01:42:00,45.0,41.0,30.08,WNW,289,0.0,1.0,86,0.00,,,0.00,,2013-09-20 07:42:00,
2013-09-20 01:53:00,45.0,41.0,30.08,WNW,289,0.0,3.0,86,0.00,,,0.00,,2013-09-20 07:53:00,
2013-09-20 02:11:00,44.0,40.0,30.08,WNW,289,0.0,4.0,86,0.00,,,0.00,,2013-09-20 08:11:00,
2013-09-20 02:21:00,44.0,40.0,30.08,WNW,289,0.0,0.0,87,0.00,,,0.00,,2013-09-20 08:21:00,
2013-09-20 02:52:00,44.0,41.0,30.08,WNW,289,0.0,0.0,88,0.00,,,0.00,,2013-09-20 08:52:00,
2013-09-20 03:22:00,43.0,41.0,30.08,WNW,289,0.0,0.0,91,0.00,,,0.00,,2013-09-20 09:22:00,
2013-09-20 03:43:00,43.0,41.0,30.08,WNW,289,0.0,0.0,91,0.00,,,0.00,,2013-09-20 09:43:00,
2013-09-20 03:53:00,43.0,41.0,30.08,WNW,289,0.0,0.0,91,0.00,,,0.00,,2013-09-20 09:53:00,
2013-09-20 04:12:00,42.0,39.0,30.08,WNW,289,0.0,0.0,90,0.00,,,0.00,,2013-09-20 10:12:00,
2013-09-20 04:23:00,42.0,39.0,30.08,WNW,289,0.0,0.0,90,0.00,,,0.00,,2013-09-20 10:23:00,
2013-09-20 04:42:00,42.0,39.0,30.07,WNW,289,0.0,0.0,90,0.00,,,0.00,,2013-09-20 10:42:00,
2013-09-20 04:53:00,42.0,40.0,30.07,WNW,289,0.0,0.0,91,0.00,,,0.00,,2013-09-20 10:53:00,
2013-09-20 05:11:00,41.0,39.0,30.07,WNW,289,0.0,0.0,91,0.00,,,0.00,,2013-09-20 11:11:00,
2013-09-20 05:23:00,41.0,39.0,30.07,WNW,289,0.0,0.0,91,0.00,,,0.00,,2013-09-20 11:23:00,
2013-09-20 05:42:00,41.0,39.0,30.06,WNW,289,0.0,0.0,92,0.00,,,0.00,,2013-09-20 11:42:00,
2013-09-20 05:52:00,41.0,39.0,30.07,WNW,289,0.0,0.0,92,0.00,,,0.00,,2013-09-20 11:52:00,
2013-09-20 06:12:00,40.0,38.0,30.06,WNW,289,0.0,0.0,92,0.00,,,0.00,,2013-09-20 12:12:00,
2013-09-20 06:22:00,40.0,38.0,30.06,WNW,289,0.0,0.0,92,0.00,,,0.00,,2013-09-20 12:22:00,
2013-09-20 06:42:00,40.0,38.0,30.06,WNW,289,0.0,0.0,92,0.00,,,0.00,,2013-09-20 12:42:00,
2013-09-20 06:52:00,40.0,38.0,30.06,WNW,289,0.0,0.0,92,0.00,,,0.00,,2013-09-20 12:52:00,
2013-09-20 07:12:00,40.0,38.0,30.06,WNW,289,0.0,0.0,92,0.00,,,0.00,,2013-09-20 13:12:00,
2013-09-20 07:21:00,40.0,38.0,30.06,WNW,289,0.0,0.0,92,0.00,,,0.00,,2013-09-20 13:21:00,
2013-09-20 07:41:00,40.0,38.0,30.06,WNW,289,0.0,0.0,92,0.00,,,0.00,,2013-09-20 13:41:00,
2013-09-20 07:52:00,40.0,38.0,30.06,WNW,289,0.0,0.0,92,0.00,,,0.00,,2013-09-20 13:52:00,
2013-09-20 08:21:00,44.0,42.0,30.06,WNW,289,0.0,0.0,91,0.00,,,0.00,,2013-09-20 14:21:00,
2013-09-20 08:42:00,45.0,40.0,30.06,WNW,289,0.0,0.0,84,0.00,,,0.00,,2013-09-20 14:42:00,
2013-09-20 08:52:00,49.0,42.0,30.05,WNW,289,0.0,0.0,78,0.00,,,0.00,,2013-09-20 14:52:00,
2013-09-20 09:12:00,51.0,42.0,30.05,WNW,289,0.0,0.0,72,0.00,,,0.00,,2013-09-20 15:12:00,
2013-09-20 09:21:00,51.0,42.0,30.05,WNW,289,0.0,3.0,72,0.00,,,0.00,,2013-09-20 15:21:00,
2013-09-20 09:44:00,51.0,43.0,30.05,WNW,289,0.0,4.0,73,0.00,,,0.00,,2013-09-20 15:44:00,
2013-09-20 09:54:00,52.0,42.0,30.05,WNW,289,0.0,3.0,69,0.00,,,0.00,,2013-09-20 15:54:00,
2013-09-20 10:23:00,53.0,42.0,30.04,WNW,289,0.0,2.0,67,0.00,,,0.00,,2013-09-20 16:23:00,
2013-09-20 10:42:00,55.0,43.0,30.04,WNW,289,0.0,1.0,65,0.00,,,0.00,,2013-09-20 16:42:00,
2013-09-20 10:53:00,56.0,42.0,30.03,WNW,289,0.0,3.0,60,0.00,,,0.00,,2013-09-20 16:53:00,
2013-09-20 11:13:00,58.0,41.0,30.02,WNW,289,1.0,4.0,54,0.00,,,0.00,,2013-09-20 17:13:00,
2013-09-20 11:23:00,60.0,41.0,30.02,WNW,289,0.0,6.0,49,0.00,,,0.00,,2013-09-20 17:23:00,
2013-09-20 11:53:00,63.0,40.0,30.01,WNW,289,1.0,6.0,42,0.00,,,0.00,,2013-09-20 17:53:00,
2013-09-20 12:12:00,63.0,38.0,30.00,SSW,203,3.0,10.0,40,0.00,,,0.00,,2013-09-20 18:12:00,
2013-09-20 12:22:00,64.0,39.0,29.99,SSW,195,2.0,7.0,39,0.00,,,0.00,,2013-09-20 18:22:00,
2013-09-20 12:42:00,65.0,37.0,29.98,South,180,4.0,12.0,36,0.00,,,0.00,,2013-09-20 18:42:00,
2013-09-20 12:52:00,65.0,37.0,29.97,South,176,3.0,11.0,36,0.00,,,0.00,,2013-09-20 18:52:00,
2013-09-20 13:11:00,66.0,37.0,29.96,SSE,147,4.0,14.0,34,0.00,,,0.00,,2013-09-20 19:11:00,
2013-09-20 13:22:00,66.0,36.0,29.95,SE,125,3.0,15.0,33,0.00,,,0.00,,2013-09-20 19:22:00,
2013-09-20 13:53:00,67.0,37.0,29.93,SE,146,2.0,16.0,33,0.00,,,0.00,,2013-09-20 19:53:00,
2013-09-20 14:11:00,68.0,38.0,29.92,SE,146,3.0,11.0,33,0.00,,,0.00,,2013-09-20 20:11:00,
2013-09-20 14:22:00,68.0,36.0,29.91,SE,142,4.0,14.0,31,0.00,,,0.00,,2013-09-20 20:22:00,
2013-09-20 14:42:00,69.0,36.0,29.91,SSE,151,4.0,13.0,30,0.00,,,0.00,,2013-09-20 20:42:00,
2013-09-20 14:52:00,69.0,36.0,29.89,SSE,147,2.0,12.0,30,0.00,,,0.00,,2013-09-20 20:52:00,
2013-09-20 15:12:00,70.0,34.0,29.89,SSE,151,6.0,13.0,26,0.00,,,0.00,,2013-09-20 21:12:00,
2013-09-20 15:21:00,71.0,34.0,29.88,SSE,148,5.0,10.0,26,0.00,,,0.00,,2013-09-20 21:21:00,
2013-09-20 15:54:00,72.0,34.0,29.86,SE,144,4.0,9.0,25,0.00,,,0.00,,2013-09-20 21:54:00,
2013-09-20 16:14:00,73.0,34.0,29.85,SE,144,2.0,7.0,24,0.00,,,0.00,,2013-09-20 22:14:00,
2013-09-20 16:23:00,73.0,33.0,29.84,SE,142,3.0,11.0,23,0.00,,,0.00,,2013-09-20 22:23:00,
2013-09-20 16:43:00,73.0,33.0,29.84,SSE,150,1.0,11.0,23,0.00,,,0.00,,2013-09-20 22:43:00,
2013-09-20 16:53:00,73.0,32.0,29.84,SSE,150,1.0,11.0,22,0.00,,,0.00,,2013-09-20 22:53:00,
2013-09-20 17:12:00,73.0,33.0,29.83,SSE,150,4.0,9.0,23,0.00,,,0.00,,2013-09-20 23:12:00,
2013-09-20 17:22:00,73.0,32.0,29.83,SSE,155,3.0,9.0,22,0.00,,,0.00,,2013-09-20 23:22:00,
2013-09-20 17:53:00,73.0,33.0,29.81,SSE,155,2.0,7.0,23,0.00,,,0.00,,2013-09-20 23:53:00,
2013-09-20 18:11:00,73.0,33.0,29.81,SSE,155,0.0,6.0,23,0.00,,,0.00,,2013-09-21 00:11:00,
2013-09-20 18:21:00,73.0,35.0,29.80,SSE,155,0.0,3.0,25,0.00,,,0.00,,2013-09-21 00:21:00,
2013-09-20 18:42:00,72.0,35.0,29.80,SSE,155,0.0,2.0,26,0.00,,,0.00,,2013-09-21 00:42:00,
2013-09-20 18:52:00,72.0,34.0,29.80,SSE,155,0.0,1.0,25,0.00,,,0.00,,2013-09-21 00:52:00,
2013-09-20 19:12:00,71.0,35.0,29.80,SSE,155,0.0,1.0,27,0.00,,,0.00,,2013-09-21 01:12:00,
2013-09-20 19:22:00,70.0,36.0,29.79,SSE,155,0.0,0.0,29,0.00,,,0.00,,2013-09-21 01:22:00,
2013-09-20 19:42:00,66.0,38.0,29.79,SSE,155,0.0,0.0,35,0.00,,,0.00,,2013-09-21 01:42:00,
2013-09-20 19:52:00,64.0,42.0,29.78,SSE,155,0.0,0.0,45,0.00,,,0.00,,2013-09-21 01:52:00,
2013-09-20 20:12:00,62.0,43.0,29.78,SSE,155,0.0,0.0,50,0.00,,,0.00,,2013-09-21 02:12:00,
2013-09-20 20:52:00,58.0,43.0,29.78,SSE,155,0.0,0.0,57,0.00,,,0.00,,2013-09-21 02:52:00,
2013-09-20 21:55:00,54.0,44.0,29.78,SSE,155,0.0,0.0,70,0.00,,,0.00,,2013-09-21 03:55:00,
2013-09-20 22:14:00,53.0,42.0,29.78,SSE,155,0.0,3.0,67,0.00,,,0.00,,2013-09-21 04:14:00,
2013-09-20 22:24:00,52.0,42.0,29.78,SSE,155,0.0,1.0,69,0.00,,,0.00,,2013-09-21 04:24:00,
2013-09-20 23:12:00,51.0,41.0,29.77,SSE,155,3.0,6.0,68,0.00,,,0.00,,2013-09-21 05:12:00,
2013-09-20 23:23:00,50.0,40.0,29.77,SSE,155,0.0,4.0,68,0.00,,,0.00,,2013-09-21 05:23:00,
2013-09-20 23:43:00,49.0,41.0,29.76,SSE,155,2.0,5.0,74,0.00,,,0.00,,2013-09-21 05:43:00,
2013-09-20 23:52:00,49.0,40.0,29.76,SSE,155,4.0,5.0,71,0.00,,,0.00,,2013-09-21 05:52:00,